Location: Newark
(35.8833°N, 14.5000°E)
Time: 03:50:05
(UTC+00:00)

Altair - Pass Details

Date: 23 November 2019
Orbit: 1502 x 1682 km, 47.2° (Epoch: 05 December)

Event Time Altitude Azimuth Distance (km) Brightness Sun altitude
Rises 06:32:10 0° 303° (WNW) 4,642 9.3 7.4°
Reaches altitude 10° 06:35:10 10° 305° (NW) 3,668 8.9 8.0°
Maximum altitude 06:44:27 79° 32° (NNE) 1,563 7.8 9.5°
Drops below altitude 10° 06:54:01 10° 120° (ESE) 3,776 12.6 11.1°
Sets 06:57:09 0° 121° (ESE) 4,784 12.2 11.6°
